Theta_e
313 312 314 315 314 314 314 313 314 316 318 319 319 321 322 323 324 325 327 329 332 332 330 329 329 329 329 330 332 333 334 336 336 333 335 334 337 340 344 345 345 345 347 346
312 312 313 312 312 312 312 312 314 314 315 318 321 321 321 322 324 325 325 327 328 329 329 330 329 328 330 330 332 333 335 337 339 336 336 333 336 339 343 345 346 347 347 346
311 311 311 311 311 312 312 313 312 313 315 317 319 320 321 322 322 323 324 325 326 328 328 329 329 331 328 330 331 332 334 337 340 337 337 339 341 344 344 347 348 347 346 345
310 310 310 310 310 311 312 312 312 312 312 314 316 321 321 322 323 324 324 325 326 326 327 328 330 332 330 329 327 329 332 335 339 342 336 338 343 344 347 347 346 345 345 345
309 310 310 311 311 312 313 312 312 312 312 313 314 317 319 320 323 323 323 324 324 325 325 325 326 327 325 325 327 328 330 336 337 339 337 337 344 344 345 345 349 345 344 342
311 313 313 313 315 314 312 313 313 312 312 313 313 316 318 320 321 322 323 323 324 324 324 325 325 323 323 323 324 325 329 335 336 337 343 345 346 348 347 349 345 344 344 344
311 312 313 314 314 315 314 315 315 312 314 313 313 314 317 318 320 321 321 322 323 323 323 323 324 324 325 325 324 325 328 331 334 340 344 346 349 351 352 348 346 345 346 346
313 313 312 313 314 314 317 315 313 312 312 312 316 316 315 318 320 321 320 320 321 322 323 324 325 325 327 326 325 328 333 339 343 345 347 349 350 350 351 348 349 347 347 346
313 313 311 311 313 314 315 317 314 311 312 313 316 316 317 316 318 319 320 321 321 325 327 329 331 331 332 327 327 332 338 343 346 347 348 350 350 350 349 351 349 347 346 345
311 313 311 312 313 313 315 314 320 313 314 313 314 316 317 316 316 319 320 322 323 324 327 332 333 333 336 332 335 341 344 347 348 349 350 350 351 351 350 348 346 343 342 340
310 313 312 311 312 315 315 314 316 316 317 315 316 319 318 318 317 319 320 322 323 328 336 339 341 343 341 340 341 344 346 348 348 349 350 349 348 348 346 343 341 342 340 339
311 314 314 311 311 313 313 313 313 320 318 315 315 319 318 320 322 319 322 321 322 323 338 341 340 343 344 344 346 346 347 347 348 348 347 347 346 343 342 341 340 340 338 337
314 313 316 312 312 315 316 315 312 315 316 319 319 320 319 321 322 321 321 321 321 322 333 342 343 348 346 346 346 346 346 346 346 346 345 343 342 341 340 339 338 337 336 334
313 314 314 317 313 314 314 314 314 313 316 315 313 315 318 318 318 319 320 321 319 320 328 343 343 346 346 345 344 345 344 344 343 342 341 341 340 339 338 337 336 335 334 333
313 319 314 313 312 311 312 311 310 311 311 313 313 312 313 317 317 319 318 318 317 320 324 343 342 345 345 345 344 342 341 341 340 339 339 338 337 336 335 335 335 334 333 332
314 316 314 314 312 311 312 311 311 311 311 311 311 311 311 313 314 315 316 316 317 319 322 339 342 342 343 344 342 340 339 338 337 336 335 334 334 334 335 335 334 333 332 332
314 315 314 315 312 312 311 311 311 311 311 311 311 311 312 313 314 316 317 316 317 318 322 329 342 341 343 341 340 339 337 335 333 333 333 333 334 334 334 333 332 332 332 332
313 316 315 316 314 315 312 313 314 314 315 315 316 315 316 316 315 316 316 317 317 319 323 328 341 342 342 341 338 336 334 332 332 332 332 333 333 333 333 332 332 332 334 335
313 313 317 319 318 314 313 314 316 315 318 315 316 316 315 316 318 319 316 316 317 320 330 332 340 341 341 339 337 334 332 331 332 332 333 332 332 331 331 332 333 333 334 335
316 312 315 316 319 319 315 316 313 314 318 318 317 319 321 322 323 318 317 318 328 330 331 340 340 341 340 339 335 333 330 331 331 332 333 332 332 331 331 331 332 333 334 334
317 318 318 317 319 317 317 313 311 320 318 316 314 317 320 323 325 325 323 324 325 329 332 337 340 341 339 337 335 331 331 331 333 333 333 333 331 331 330 331 332 333 333 333
321 319 321 319 320 325 315 312 315 315 313 311 313 315 318 320 321 323 324 323 326 332 331 339 340 342 337 336 333 331 332 334 333 333 333 332 331 331 331 332 333 333 334 333
319 319 317 315 320 316 315 313 312 311 310 311 311 313 316 320 320 321 324 326 329 330 333 339 341 338 336 334 330 331 333 334 333 333 332 332 332 331 332 332 333 334 334 334
316 315 317 315 314 315 313 313 311 311 312 312 313 315 318 319 321 323 325 327 331 332 339 339 337 338 337 333 328 331 333 333 333 332 333 332 333 333 333 334 334 335 335 334
316 315 317 316 314 313 312 312 312 312 311 312 317 321 322 320 324 326 328 330 332 336 338 339 337 337 334 329 329 332 333 333 332 333 333 334 333 334 335 333 334 336 333 333
315 315 318 317 313 312 313 312 311 310 310 313 315 319 323 324 326 327 332 335 336 336 338 339 336 334 329 329 331 332 332 334 332 334 334 334 333 333 333 333 330 330 330 331
Wind_Speed
10 12 14 16 17 20 22 25 31 30 25 25 30 31 32 30 29 28 26 22 29 29 23 27 20 17 18 19 21 19 22 23 22 22 20 21 21 21 20 21 20 21 21 23
13 16 15 15 18 23 22 25 28 27 28 26 24 27 30 29 27 28 28 28 27 22 21 21 24 24 21 23 21 22 24 25 23 21 21 23 18 19 20 19 19 20 21 23
14 16 19 19 20 20 20 22 24 26 24 26 28 29 31 30 29 27 27 27 27 26 25 21 19 23 24 23 23 24 26 25 24 24 20 15 15 13 16 17 17 19 21 22
15 16 16 15 18 18 22 20 21 22 20 22 25 24 29 26 29 27 27 24 22 22 22 22 22 22 25 26 28 27 26 24 24 22 20 20 17 15 16 15 19 20 21 19
18 19 20 22 22 20 22 19 23 23 22 24 29 21 25 26 26 26 26 27 29 29 28 27 25 22 29 30 27 25 25 24 25 22 24 22 20 17 15 18 16 19 19 21
17 13 21 15 17 25 21 21 25 23 20 21 28 26 25 24 25 23 18 20 19 22 22 22 20 28 24 23 25 21 20 23 23 24 23 21 20 18 18 18 18 19 19 20
17 15 4 5 14 17 24 21 15 17 17 20 23 27 22 24 27 28 16 17 23 12 15 18 20 16 18 19 22 18 17 18 21 22 21 22 20 16 19 21 21 21 20 21
9 16 11 3 11 18 16 21 14 17 16 19 15 23 25 25 26 10 10 20 12 13 14 14 15 13 12 16 19 17 17 16 18 20 21 21 21 20 20 23 24 21 19 20
13 11 23 18 9 16 19 15 20 18 24 16 15 25 27 30 23 21 18 15 13 5 9 12 15 14 12 14 15 15 15 17 19 20 21 21 22 21 22 20 23 24 22 22
15 20 17 13 9 13 15 12 9 13 21 22 20 18 18 30 29 21 17 4 2 8 12 7 10 7 6 12 13 15 17 18 20 22 22 23 22 20 22 21 16 17 18 17
18 15 19 20 14 15 11 15 7 9 14 13 15 12 15 16 30 22 8 5 4 7 6 7 7 4 7 7 15 17 19 21 22 23 23 22 22 23 22 20 19 17 17 16
19 7 15 21 23 12 17 15 11 5 9 18 15 17 21 31 28 27 11 2 8 11 8 1 2 6 12 17 18 21 22 23 24 23 23 23 24 23 22 20 18 16 15 14
8 6 10 14 7 11 10 19 10 7 11 21 11 10 20 8 16 12 7 6 14 13 9 4 3 7 11 15 20 22 24 24 24 25 24 24 23 22 20 19 16 15 14 13
11 15 16 16 22 7 9 16 14 14 12 18 16 20 3 26 23 6 5 7 12 14 9 8 1 1 6 12 20 23 23 23 24 24 24 23 21 20 18 17 15 15 15 14
4 8 19 21 22 19 22 19 15 18 20 21 22 20 14 12 20 28 15 10 14 13 9 9 3 3 4 7 15 22 24 24 24 24 22 20 19 18 17 17 17 16 14 11
4 7 15 20 21 21 22 21 18 19 21 28 24 23 18 17 19 19 18 16 14 13 10 8 10 2 2 7 18 22 23 23 22 21 20 20 19 18 18 17 17 16 14 12
6 6 11 18 19 17 17 19 18 18 21 24 24 21 19 18 15 15 15 14 13 12 11 3 12 6 5 9 18 22 23 22 21 20 20 20 18 18 15 17 16 16 14 11
3 9 8 10 13 11 11 10 14 15 17 14 20 18 19 21 16 18 17 15 12 11 11 4 13 9 12 12 21 23 22 21 21 20 19 18 16 17 18 17 16 14 11 11
8 1 4 4 7 15 22 13 8 9 20 19 21 25 21 23 22 17 12 14 11 14 9 4 19 22 17 16 23 23 21 21 20 19 18 16 15 16 14 16 16 13 12 11
7 7 4 4 5 5 2 8 7 8 17 9 10 11 13 13 12 6 11 8 3 8 11 10 21 23 19 19 24 21 20 19 19 18 18 13 18 20 14 16 15 13 12 11
7 3 7 11 8 8 9 9 8 5 5 15 14 13 16 12 11 20 9 7 10 10 6 8 23 21 24 25 24 20 20 18 21 19 16 15 24 21 20 18 16 14 11 10
3 3 3 4 5 1 13 6 3 10 18 16 17 18 16 17 15 16 15 11 13 5 12 16 16 20 25 25 23 20 19 22 22 19 19 17 17 18 16 15 14 12 10 11
4 4 2 3 5 18 14 12 14 13 16 19 16 19 18 19 15 16 15 13 5 8 15 19 14 18 24 24 23 21 20 22 19 16 17 16 13 13 15 14 11 10 11 10
10 4 4 2 5 13 15 10 14 8 14 18 21 22 20 19 16 18 11 10 5 13 10 19 16 18 19 23 22 22 23 22 17 18 17 18 17 16 13 12 11 11 11 9
12 10 9 11 14 14 7 10 13 13 15 19 14 13 13 13 18 11 11 5 9 9 9 12 16 18 22 23 24 23 24 24 18 24 17 17 16 13 13 9 5 6 6 8
9 10 4 3 8 10 10 15 13 15 18 18 12 13 10 9 11 8 10 9 3 5 15 6 22 24 24 24 25 24 21 28 21 21 16 16 17 14 16 13 12 12 12 12
Wind_Direction
286 287 260 276 281 278 280 274 276 277 274 244 251 257 247 241 237 249 255 251 230 245 250 250 254 255 252 248 236 241 244 246 252 247 246 245 241 235 231 227 218 209 204 205
277 254 263 261 269 278 279 278 272 275 270 278 272 266 264 260 246 247 245 246 252 249 243 248 250 248 244 247 241 236 240 243 241 237 238 242 250 239 226 220 207 204 200 201
295 298 306 289 274 270 271 266 274 280 286 273 266 256 263 264 257 256 253 251 253 253 253 252 257 257 252 249 243 236 234 237 236 232 233 231 238 250 216 206 195 199 198 198
290 290 270 274 269 269 271 269 273 276 269 259 254 261 249 246 249 251 251 247 249 254 259 254 250 252 248 249 251 246 238 231 228 215 222 220 217 212 213 207 205 191 192 185
291 293 285 278 276 279 275 277 274 267 263 267 254 259 254 245 245 241 241 242 242 242 243 247 249 252 253 249 243 234 232 222 220 211 213 220 220 210 198 201 165 167 171 184
277 334 286 308 328 297 288 282 271 262 258 253 252 248 252 246 248 259 257 258 256 248 246 245 253 251 249 249 244 232 224 222 215 215 212 220 200 212 179 173 168 170 172 178
314 306 246 249 322 294 256 258 261 253 244 252 250 251 246 256 243 249 263 263 242 260 261 249 239 239 239 234 232 216 214 217 215 206 201 198 196 193 165 157 168 165 169 172
334 308 323 315 289 301 283 250 244 261 260 257 317 258 246 248 254 254 267 281 273 256 253 253 246 245 249 237 207 210 200 202 194 191 189 184 180 177 171 180 158 167 169 168
305 306 318 301 280 296 276 251 253 268 281 270 273 272 277 240 249 250 252 243 219 272 295 273 258 250 239 230 203 197 201 186 180 177 174 171 172 169 170 159 152 160 164 153
294 295 303 295 289 248 251 281 258 239 260 263 267 263 258 204 231 217 229 167 274 266 262 274 259 237 238 211 170 190 172 166 166 160 160 160 159 153 138 146 157 146 134 153
301 297 290 292 264 279 249 246 189 262 231 271 269 277 350 236 203 217 200 102 318 306 17 295 338 331 252 174 181 169 162 158 155 155 152 139 134 138 144 143 142 140 147 155
305 289 286 279 283 219 262 266 313 233 286 264 275 284 306 298 185 199 110 76 332 329 79 150 206 209 197 187 153 159 154 154 153 141 138 138 140 141 140 141 143 147 154 164
357 284 305 292 247 32 354 311 280 282 269 264 270 276 314 324 104 114 120 18 335 335 50 91 163 199 175 152 151 149 154 149 145 144 141 140 140 142 140 142 147 153 156 160
294 261 257 269 288 244 237 233 254 275 264 276 262 258 290 308 309 185 61 35 328 316 6 101 191 343 325 143 144 153 143 144 140 141 141 140 142 142 142 145 150 154 158 161
211 266 273 272 277 278 277 283 271 266 269 267 283 284 282 240 283 301 329 318 317 312 343 116 126 8 325 144 144 142 141 141 143 141 141 140 140 143 146 150 154 157 158 143
242 275 289 288 280 267 264 262 257 259 268 273 274 278 277 263 265 277 283 292 296 307 324 104 142 208 296 133 157 142 141 142 142 141 141 144 146 147 150 155 153 157 134 144
261 280 288 280 276 286 270 271 266 261 262 260 266 272 275 277 279 283 291 282 281 285 296 357 162 170 203 189 137 146 142 144 144 143 145 148 150 143 150 157 156 147 159 156
229 238 242 266 299 265 281 355 349 325 310 289 287 298 308 301 286 271 271 275 269 280 283 347 171 171 200 204 158 143 149 150 147 149 148 150 151 152 164 159 151 144 155 139
197 229 262 256 241 277 289 321 331 304 280 291 295 295 283 275 277 270 261 270 273 262 264 225 186 164 182 188 155 150 154 155 154 154 153 133 164 130 156 138 144 155 153 143
167 207 251 281 262 274 7 72 8 299 273 33 351 327 316 301 274 255 247 229 306 337 335 304 173 156 176 195 152 157 159 159 163 140 117 163 148 143 156 158 163 160 156 151
306 228 232 250 252 265 49 356 332 237 339 341 325 297 290 286 298 323 334 318 302 302 283 259 165 164 187 159 154 166 161 172 126 133 152 180 127 151 172 165 162 165 165 168
269 290 305 292 267 346 343 350 233 316 309 308 302 292 296 292 294 301 295 285 282 347 293 184 170 186 162 153 159 160 172 135 136 160 176 132 147 166 153 155 161 157 159 154
301 205 260 202 287 301 313 295 292 279 274 285 282 282 277 276 282 276 280 285 320 276 281 186 200 143 154 158 169 161 154 137 150 186 132 130 153 145 149 156 164 163 172 172
310 330 241 295 268 315 312 308 294 304 300 292 276 270 259 258 266 273 277 279 235 264 191 184 157 159 153 162 167 168 147 143 162 136 132 145 144 144 156 161 181 171 180 182
289 296 288 272 289 321 281 285 321 321 313 310 309 287 248 235 253 255 274 262 268 241 197 203 168 152 155 164 164 168 154 146 182 127 150 150 143 149 125 103 119 149 146 170
268 351 315 296 336 291 323 344 352 335 321 319 331 316 293 270 268 289 292 250 228 239 193 211 151 153 160 162 165 166 162 155 151 138 165 164 152 170 142 132 99 103 117 112